TimeMDT,TemperatureF,Dew PointF,Humidity,Sea Level PressureIn,VisibilityMPH,Wind Direction,Wind SpeedMPH,Gust SpeedMPH,PrecipitationIn,Events,Conditions,WindDirDegrees,DateUTC
12:19 AM,17.6,15.8,93,30.22,-9999.0,West,40.3,54.1,N/A,,Overcast,270,2013-03-12 06:19:00
12:39 AM,19.4,15.8,86,30.21,-9999.0,North,-9999.0,-,N/A,,Overcast,0,2013-03-12 06:39:00
12:59 AM,17.6,15.8,93,30.22,-9999.0,North,-9999.0,-,N/A,,Overcast,0,2013-03-12 06:59:00
1:19 AM,17.6,15.8,93,30.23,-9999.0,North,-9999.0,-,N/A,,Overcast,0,2013-03-12 07:19:00
1:39 AM,17.6,15.8,93,30.23,-9999.0,North,-9999.0,-,N/A,,Overcast,0,2013-03-12 07:39:00
1:59 AM,17.6,15.8,93,30.23,-9999.0,West,41.4,-,N/A,,Overcast,270,2013-03-12 07:59:00
2:19 AM,17.6,15.8,93,30.23,-9999.0,North,-9999.0,-,N/A,,Overcast,0,2013-03-12 08:19:00
2:39 AM,17.6,15.8,93,30.23,-9999.0,North,-9999.0,-,N/A,,Overcast,0,2013-03-12 08:39:00
2:59 AM,17.6,15.8,93,30.23,-9999.0,North,-9999.0,-,N/A,,Overcast,0,2013-03-12 08:59:00
3:19 AM,17.6,15.8,93,30.22,-9999.0,North,-9999.0,-,N/A,,Overcast,0,2013-03-12 09:19:00
3:39 AM,17.6,15.8,93,30.22,-9999.0,North,-9999.0,-,N/A,,Overcast,0,2013-03-12 09:39:00
3:59 AM,17.6,15.8,93,30.22,-9999.0,South,35.7,-,N/A,,Overcast,180,2013-03-12 09:59:00
4:19 AM,17.6,15.8,93,30.23,-9999.0,North,-9999.0,-,N/A,,Overcast,0,2013-03-12 10:19:00
4:39 AM,17.6,15.8,93,30.23,-9999.0,North,-9999.0,-,N/A,,Overcast,0,2013-03-12 10:39:00
4:59 AM,17.6,15.8,93,30.24,-9999.0,North,-9999.0,-,N/A,,Overcast,0,2013-03-12 10:59:00
5:19 AM,17.6,14.0,86,30.25,-9999.0,North,-9999.0,-,N/A,,Overcast,0,2013-03-12 11:19:00
5:39 AM,17.6,14.0,86,30.25,-9999.0,North,-9999.0,-,N/A,,Mostly Cloudy,0,2013-03-12 11:39:00
5:59 AM,17.6,14.0,86,30.25,-9999.0,North,-9999.0,-,N/A,,Mostly Cloudy,0,2013-03-12 11:59:00
6:19 AM,17.6,14.0,86,30.25,-9999.0,North,-9999.0,-,N/A,,Mostly Cloudy,0,2013-03-12 12:19:00
6:39 AM,17.6,14.0,86,30.25,-9999.0,North,-9999.0,-,N/A,,Mostly Cloudy,0,2013-03-12 12:39:00
6:59 AM,17.6,14.0,86,30.26,-9999.0,North,-9999.0,-,N/A,,Mostly Cloudy,0,2013-03-12 12:59:00
7:19 AM,17.6,14.0,86,30.27,-9999.0,North,-9999.0,-,N/A,,Overcast,0,2013-03-12 13:19:00
7:39 AM,17.6,14.0,86,30.27,-9999.0,North,-9999.0,-,N/A,,Overcast,0,2013-03-12 13:39:00
7:59 AM,17.6,14.0,86,30.27,-9999.0,North,-9999.0,-,N/A,,Overcast,0,2013-03-12 13:59:00
8:19 AM,17.6,14.0,86,30.28,-9999.0,North,-9999.0,-,N/A,,Overcast,0,2013-03-12 14:19:00
8:39 AM,17.6,14.0,86,30.29,-9999.0,North,-9999.0,-,N/A,,Overcast,0,2013-03-12 14:39:00
8:59 AM,17.6,14.0,86,30.30,-9999.0,North,-9999.0,-,N/A,,Overcast,0,2013-03-12 14:59:00
9:19 AM,17.6,15.8,93,30.32,-9999.0,North,-9999.0,-,N/A,,Overcast,0,2013-03-12 15:19:00
9:39 AM,19.4,15.8,86,30.31,-9999.0,North,-9999.0,-,N/A,,Overcast,0,2013-03-12 15:39:00
9:59 AM,19.4,15.8,86,30.31,-9999.0,North,-9999.0,-,N/A,,Overcast,0,2013-03-12 15:59:00
10:19 AM,19.4,17.6,93,30.32,-9999.0,North,-9999.0,-,N/A,,Overcast,0,2013-03-12 16:19:00
10:39 AM,19.4,17.6,93,30.33,-9999.0,North,-9999.0,-,N/A,,Overcast,0,2013-03-12 16:39:00
10:59 AM,19.4,17.6,93,30.34,-9999.0,North,-9999.0,-,N/A,,Overcast,0,2013-03-12 16:59:00
11:19 AM,19.4,17.6,93,30.35,-9999.0,North,-9999.0,-,N/A,,Overcast,0,2013-03-12 17:19:00
11:39 AM,19.4,17.6,93,30.35,-9999.0,North,-9999.0,-,N/A,,Overcast,0,2013-03-12 17:39:00
11:58 AM,19.4,17.6,93,30.34,-9999.0,West,38.0,-,N/A,,Overcast,260,2013-03-12 17:58:00
12:19 PM,21.2,19.4,93,30.34,-9999.0,West,46.0,49.5,N/A,,Unknown,260,2013-03-12 18:19:00
12:39 PM,21.2,19.4,93,30.34,-9999.0,West,46.0,51.8,N/A,,Overcast,260,2013-03-12 18:39:00
12:57 PM,21.2,19.4,93,30.33,-9999.0,West,43.7,54.1,N/A,,Mostly Cloudy,260,2013-03-12 18:57:00
1:19 PM,21.2,19.4,93,30.34,-9999.0,West,44.9,48.3,N/A,,Mostly Cloudy,260,2013-03-12 19:19:00
1:38 PM,23.0,21.2,93,30.35,-9999.0,West,42.6,50.6,N/A,,Unknown,260,2013-03-12 19:38:00
1:59 PM,23.0,21.2,93,30.36,-9999.0,West,33.4,40.3,N/A,,Mostly Cloudy,260,2013-03-12 19:59:00
2:16 PM,21.2,21.2,100,30.37,-9999.0,West,29.9,43.7,N/A,,Mostly Cloudy,260,2013-03-12 20:16:00
2:39 PM,23.0,21.2,93,30.38,-9999.0,WSW,23.0,39.1,N/A,,Overcast,250,2013-03-12 20:39:00
2:59 PM,23.0,21.2,93,30.39,-9999.0,West,33.4,40.3,N/A,,Unknown,260,2013-03-12 20:59:00
3:17 PM,23.0,21.2,93,30.38,-9999.0,West,33.4,42.6,N/A,,Unknown,260,2013-03-12 21:17:00
3:39 PM,23.0,21.2,93,30.38,-9999.0,West,40.3,43.7,N/A,,Unknown,260,2013-03-12 21:39:00
3:59 PM,24.8,21.2,86,30.38,-9999.0,West,36.8,42.6,N/A,,Unknown,270,2013-03-12 21:59:00
4:19 PM,24.8,19.4,80,30.39,-9999.0,West,38.0,43.7,N/A,,Scattered Clouds,260,2013-03-12 22:19:00
4:39 PM,24.8,19.4,80,30.39,-9999.0,West,36.8,41.4,N/A,,Clear,260,2013-03-12 22:39:00
4:59 PM,24.8,19.4,80,30.40,-9999.0,West,32.2,36.8,N/A,,Clear,270,2013-03-12 22:59:00
5:19 PM,26.6,19.4,74,30.39,-9999.0,West,31.1,34.5,N/A,,Clear,260,2013-03-12 23:19:00
5:39 PM,24.8,19.4,80,30.40,-9999.0,West,33.4,39.1,N/A,,Clear,260,2013-03-12 23:39:00
5:59 PM,24.8,19.4,80,30.39,-9999.0,West,31.1,38.0,N/A,,Scattered Clouds,260,2013-03-12 23:59:00
6:19 PM,23.0,19.4,86,30.40,-9999.0,West,33.4,40.3,N/A,,Scattered Clouds,260,2013-03-13 00:19:00
6:39 PM,23.0,19.4,86,30.40,-9999.0,West,35.7,43.7,N/A,,Scattered Clouds,270,2013-03-13 00:39:00
6:59 PM,23.0,19.4,86,30.40,-9999.0,West,43.7,47.2,N/A,,Unknown,270,2013-03-13 00:59:00
7:19 PM,23.0,19.4,86,30.41,-9999.0,West,35.7,46.0,N/A,,Unknown,270,2013-03-13 01:19:00
7:39 PM,21.2,19.4,93,30.42,-9999.0,West,32.2,-,N/A,,Unknown,270,2013-03-13 01:39:00
7:59 PM,21.2,19.4,93,30.43,-9999.0,West,29.9,-,N/A,,Unknown,260,2013-03-13 01:59:00
8:19 PM,21.2,19.4,93,30.44,-9999.0,West,31.1,-,N/A,,Unknown,270,2013-03-13 02:19:00
8:39 PM,21.2,19.4,93,30.45,-9999.0,West,27.6,-,N/A,,Unknown,260,2013-03-13 02:39:00
8:59 PM,21.2,17.6,86,30.44,-9999.0,WSW,25.3,-,N/A,,Unknown,250,2013-03-13 02:59:00
9:19 PM,21.2,17.6,86,30.44,-9999.0,West,28.8,-,N/A,,Unknown,260,2013-03-13 03:19:00
9:39 PM,21.2,17.6,86,30.44,-9999.0,West,27.6,-,N/A,,Unknown,260,2013-03-13 03:39:00
9:59 PM,21.2,17.6,86,30.43,-9999.0,West,29.9,-,N/A,,Unknown,260,2013-03-13 03:59:00
10:19 PM,21.2,17.6,86,30.43,-9999.0,West,36.8,40.3,N/A,,Unknown,270,2013-03-13 04:19:00
10:39 PM,21.2,17.6,86,30.45,-9999.0,West,34.5,-,N/A,,Unknown,270,2013-03-13 04:39:00
10:59 PM,21.2,17.6,86,30.45,-9999.0,West,36.8,-,N/A,,Unknown,270,2013-03-13 04:59:00
11:59 PM,19.4,15.8,86,30.45,-9999.0,North,-9999.0,-,N/A,,Unknown,0,2013-03-13 05:59:00